EN

Hourly Weather Abdrezyakovo

Today, 12 June, Saturday

Time Temperature Precipitation Wind Pressure Humidity
00:00 +10°C° 0 mm 2 mps 732 mmHg 71%
01:00 +10°C° 0 mm 2 mps 732 mmHg 71%
02:00 +10°C° 0 mm 2 mps 732 mmHg 70%
03:00 +10°C° 0 mm 2 mps 732 mmHg 70%
04:00 +10°C° 0 mm 2 mps 732 mmHg 69%
05:00 +12°C° 0 mm 3 mps 733 mmHg 66%
06:00 +13°C° 0 mm 3 mps 733 mmHg 63%
07:00 +14°C° 0 mm 3 mps 733 mmHg 59%
08:00 +17°C° 0 mm 4 mps 733 mmHg 54%
09:00 +18°C° 0 mm 4 mps 733 mmHg 49%
10:00 +19°C° 0 mm 5 mps 733 mmHg 46%
11:00 +20°C° 0 mm 5 mps 733 mmHg 45%
12:00 +21°C° 0 mm 4 mps 733 mmHg 44%
13:00 +21°C° 0 mm 4 mps 733 mmHg 43%
14:00 +21°C° 0 mm 4 mps 733 mmHg 44%
15:00 +22°C° 0 mm 4 mps 733 mmHg 44%
16:00 +22°C° 0 mm 4 mps 733 mmHg 44%
17:00 +21°C° 0 mm 4 mps 733 mmHg 48%
18:00 +19°C° 0 mm 3 mps 733 mmHg 51%
19:00 +18°C° 0 mm 3 mps 733 mmHg 55%
20:00 +17°C° 0 mm 3 mps 733 mmHg 56%
21:00 +16°C° 0 mm 3 mps 733 mmHg 57%
22:00 +14°C° 0 mm 3 mps 732 mmHg 59%
23:00 +16°C° 0 mm 3 mps 732 mmHg 55%

Tomorrow, 13 June, Sunday

Time Temperature Precipitation Wind Pressure Humidity
00:00 +15°C° 0 mm 4 mps 732 mmHg 51%
01:00 +15°C° 0 mm 4 mps 732 mmHg 47%
02:00 +17°C° 0 mm 4 mps 732 mmHg 46%
03:00 +17°C° 0 mm 4 mps 733 mmHg 45%
04:00 +17°C° 0 mm 3 mps 733 mmHg 43%
05:00 +17°C° 0 mm 3 mps 733 mmHg 45%
06:00 +17°C° 0 mm 3 mps 733 mmHg 47%
07:00 +18°C° 0 mm 3 mps 733 mmHg 48%
08:00 +19°C° 0 mm 3 mps 733 mmHg 46%
09:00 +21°C° 0 mm 3 mps 733 mmHg 43%
10:00 +22°C° 0 mm 4 mps 733 mmHg 41%
11:00 +21°C° 0 mm 3 mps 733 mmHg 44%
12:00 +21°C° 0 mm 3 mps 733 mmHg 47%
13:00 +20°C° 0 mm 3 mps 733 mmHg 50%
14:00 +21°C° 0 mm 4 mps 733 mmHg 47%
15:00 +23°C° 0 mm 4 mps 733 mmHg 44%
16:00 +25°C° 0 mm 4 mps 733 mmHg 41%
17:00 +23°C° 0 mm 4 mps 733 mmHg 44%
18:00 +22°C° 0 mm 4 mps 733 mmHg 47%
19:00 +21°C° 0 mm 4 mps 733 mmHg 50%
20:00 +19°C° 0 mm 3 mps 733 mmHg 53%
21:00 +18°C° 0 mm 2 mps 733 mmHg 56%
22:00 +16°C° 0 mm 1 mps 733 mmHg 59%
23:00 +15°C° 0 mm 1 mps 733 mmHg 61%

Day after tomorrow, 14 June, Monday

Time Temperature Precipitation Wind Pressure Humidity
00:00 +14°C° 0 mm 1 mps 733 mmHg 63%
01:00 +14°C° 0 mm 1 mps 732 mmHg 65%
02:00 +13°C° 0 mm 1 mps 733 mmHg 68%
03:00 +13°C° 0 mm 1 mps 733 mmHg 71%
04:00 +13°C° 0 mm 1 mps 733 mmHg 73%
05:00 +15°C° 0 mm 1 mps 733 mmHg 68%
06:00 +19°C° 0 mm 1 mps 733 mmHg 64%
07:00 +21°C° 0 mm 1 mps 733 mmHg 59%
08:00 +23°C° 0 mm 1 mps 733 mmHg 52%
09:00 +25°C° 0 mm 2 mps 733 mmHg 44%
10:00 +27°C° 0 mm 2 mps 733 mmHg 37%
11:00 +28°C° 0 mm 2 mps 733 mmHg 36%
12:00 +28°C° 0 mm 3 mps 733 mmHg 34%
13:00 +29°C° 0 mm 3 mps 733 mmHg 33%
14:00 +29°C° 0 mm 3 mps 733 mmHg 34%
15:00 +29°C° 0 mm 3 mps 733 mmHg 35%
16:00 +29°C° 0 mm 2 mps 732 mmHg 36%
17:00 +28°C° 0 mm 2 mps 732 mmHg 44%
18:00 +26°C° 0 mm 2 mps 732 mmHg 53%
19:00 +25°C° 0 mm 1 mps 732 mmHg 62%
20:00 +23°C° 0 mm 1 mps 732 mmHg 64%
21:00 +21°C° 0 mm 1 mps 732 mmHg 67%
22:00 +20°C° 0 mm 1 mps 732 mmHg 70%
23:00 +19°C° 0 mm 1 mps 732 mmHg 70%

15 June, Tuesday

Time Temperature Precipitation Wind Pressure Humidity
00:00 +19°C° 0 mm 1 mps 732 mmHg 70%
01:00 +18°C° 0 mm 1 mps 732 mmHg 70%
02:00 +18°C° 0 mm 1 mps 732 mmHg 70%
03:00 +16°C° 0 mm 1 mps 731 mmHg 70%
04:00 +16°C° 0 mm 1 mps 731 mmHg 70%
05:00 +19°C° 0 mm 1 mps 732 mmHg 66%
06:00 +21°C° 0 mm 1 mps 732 mmHg 61%
07:00 +22°C° 0 mm 1 mps 732 mmHg 56%
08:00 +24°C° 0 mm 2 mps 732 mmHg 50%
09:00 +26°C° 0 mm 3 mps 732 mmHg 44%
10:00 +27°C° 0 mm 3 mps 732 mmHg 38%
11:00 +27°C° 0 mm 3 mps 732 mmHg 39%
12:00 +27°C° 0 mm 4 mps 731 mmHg 41%
13:00 +27°C° 0 mm 4 mps 731 mmHg 42%
14:00 +27°C° 0 mm 3 mps 731 mmHg 45%
15:00 +27°C° 0 mm 3 mps 731 mmHg 47%
16:00 +27°C° 0 mm 2 mps 731 mmHg 50%
17:00 +26°C° 0 mm 2 mps 730 mmHg 56%
18:00 +24°C° 0 mm 2 mps 730 mmHg 62%
19:00 +23°C° 0 mm 2 mps 730 mmHg 69%
20:00 +22°C° 0 mm 1 mps 729 mmHg 71%
21:00 +21°C° 0 mm 1 mps 729 mmHg 73%
22:00 +20°C° 0 mm 1 mps 729 mmHg 75%
23:00 +19°C° 0 mm 1 mps 729 mmHg 75%

16 June, Wednesday

Time Temperature Precipitation Wind Pressure Humidity
00:00 +19°C° 0 mm 1 mps 729 mmHg 76%
01:00 +18°C° 0 mm 1 mps 728 mmHg 77%
02:00 +18°C° 0 mm 1 mps 728 mmHg 78%
03:00 +18°C° 0 mm 1 mps 728 mmHg 78%
04:00 +16°C° 0 mm 1 mps 728 mmHg 79%
05:00 +19°C° 0 mm 1 mps 728 mmHg 73%
06:00 +21°C° 0 mm 1 mps 728 mmHg 67%
07:00 +23°C° 0 mm 1 mps 728 mmHg 61%
08:00 +25°C° 0 mm 1 mps 728 mmHg 54%
09:00 +27°C° 0 mm 1 mps 728 mmHg 47%
10:00 +28°C° 0 mm 2 mps 728 mmHg 40%
11:00 +29°C° 0 mm 2 mps 728 mmHg 39%
12:00 +29°C° 0 mm 3 mps 728 mmHg 39%
13:00 +29°C° 0 mm 3 mps 728 mmHg 38%
14:00 +29°C° 0 mm 3 mps 728 mmHg 42%
15:00 +28°C° 0 mm 3 mps 728 mmHg 46%
16:00 +27°C° 0 mm 2 mps 728 mmHg 51%
17:00 +26°C° 0 mm 2 mps 727 mmHg 54%
18:00 +25°C° 0 mm 1 mps 727 mmHg 58%
19:00 +24°C° 0 mm 1 mps 727 mmHg 61%
20:00 +23°C° 0.1 mm 1 mps 727 mmHg 66%
21:00 +21°C° 0.1 mm 1 mps 726 mmHg 70%
22:00 +18°C° 0.1 mm 2 mps 726 mmHg 74%
23:00 +17°C° 0.1 mm 2 mps 726 mmHg 77%

17 June, Thursday

Time Temperature Precipitation Wind Pressure Humidity
00:00 +17°C° 0.1 mm 2 mps 725 mmHg 79%
01:00 +16°C° 0.1 mm 2 mps 725 mmHg 81%
02:00 +16°C° 0 mm 2 mps 724 mmHg 80%
03:00 +17°C° 0 mm 2 mps 724 mmHg 78%
04:00 +17°C° 0 mm 2 mps 724 mmHg 77%
05:00 +19°C° 0 mm 2 mps 723 mmHg 73%
06:00 +21°C° 0 mm 2 mps 723 mmHg 68%
07:00 +23°C° 0 mm 2 mps 723 mmHg 63%
08:00 +25°C° 0 mm 3 mps 723 mmHg 58%
09:00 +26°C° 0 mm 5 mps 723 mmHg 54%
10:00 +27°C° 0 mm 6 mps 723 mmHg 49%
11:00 +23°C° 0.5 mm 6 mps 723 mmHg 62%
12:00 +21°C° 0.5 mm 6 mps 723 mmHg 75%
13:00 +19°C° 0.5 mm 6 mps 723 mmHg 88%
14:00 +17°C° 0.7 mm 6 mps 723 mmHg 91%
15:00 +16°C° 0.7 mm 6 mps 723 mmHg 93%
16:00 +15°C° 0.7 mm 6 mps 723 mmHg 96%
17:00 +15°C° 0.1 mm 5 mps 724 mmHg 90%
18:00 +15°C° 0.1 mm 4 mps 724 mmHg 85%
19:00 +17°C° 0.1 mm 3 mps 725 mmHg 79%
20:00 +14°C° 0.1 mm 3 mps 725 mmHg 77%
21:00 +13°C° 0.1 mm 3 mps 725 mmHg 75%
22:00 +12°C° 0.1 mm 3 mps 726 mmHg 73%
23:00 +11°C° 0 mm 3 mps 726 mmHg 72%
Show more